sat.trackr.live / text

‹ back to catalog

STARLINK-5566

NORAD 56133 · 2023-046AT

PAYLOAD ACTIVE UNKNOWN

§ Identity

Operator
Country
US
Launch date
2023-03-29
Launch site
AFETR
Launch vehicle
Mass (kg)
RCS (m²)

Purposes: comms

External: N2YO · Heavens-Above · Gunter

§ Orbital elements

Epoch: 2026-09-20T08:21:00.418464Z

Period
94.27 min
Inclination
43.0037°
Eccentricity
0.0001778
Mean motion
15.27574695 rev/d
Perigee alt
481.8 km
Apogee alt
484.3 km
Semi-major
6,861.2 km
B*
1.5013e-6
RAAN
127.4006°
Arg perigee
263.3250°
Mean anomaly
96.7399°
Rev number
19,197

§ Raw data

STARLINK-55661 56133U 23046AT  26263.34792151 -.00000221  00000+0  15013-5 0  99942 56133  43.0037 127.4006 0001778 263.3250  96.7399 15.27574695191972

JSON: /api/v1/satellites/56133 · /tle

For live sub-satellite position, see the globe view (requires WebGL).

§ Visibility from observer

Set your observer location to see the next 7 days of passes ≥ 10°. The values pass through the URL so the page stays shareable.

No JS? Fill the form by hand. The geolocation button needs JavaScript.